Location: Ottawa
(45.4170°N, 75.7000°W)
Time: 15:56:43
(UTC-04:00)

OTV 5 (USA 277) - Visible Passes

Search period start: 23 April 2019 00:00
Search period end: 03 May 2019 00:00
Orbit: 309 x 326 km, 54.5° (Epoch: 21 April)

Date Brightness Start Highest point End Pass type
(mag) Time Alt. Az. Time Alt. Az. Time Alt. Az.
23 Apr ? 05:07:53 15° SW 05:07:53 15° SW 05:09:13 10° S visible
23 Apr ? 21:26:19 10° SW 21:28:59 51° SE 21:29:32 41° E visible
24 Apr ? 21:40:59 10° WSW 21:43:41 59° NNW 21:45:42 16° NE visible
25 Apr ? 21:56:06 10° W 21:58:32 28° NNW 22:00:58 10° NE visible
26 Apr ? 20:36:07 10° SW 20:38:50 87° SSE 20:41:34 10° NE visible
26 Apr ? 22:11:30 10° WNW 22:13:30 18° NNW 22:15:29 10° NNE visible
27 Apr ? 20:51:01 10° W 20:53:37 39° NNW 20:56:13 10° NE visible
27 Apr ? 22:26:59 10° NW 22:28:31 14° N 22:30:04 10° NNE visible
28 Apr ? 21:06:17 10° WNW 21:08:31 22° NNW 21:10:46 10° NNE visible
28 Apr ? 22:42:20 10° NNW 22:43:36 12° N 22:44:39 11° NNE visible
29 Apr ? 21:21:45 10° NW 21:23:31 15° NNW 21:25:17 10° NNE visible
29 Apr ? 22:57:15 10° NNW 22:58:41 13° N 22:58:50 13° N visible
30 Apr ? 21:37:12 10° NW 21:38:34 13° N 21:39:56 10° NNE visible
30 Apr ? 23:11:50 10° NNW 23:12:56 15° N 23:12:56 15° N visible
01 May ? 21:52:20 10° NNW 21:53:39 13° N 21:54:59 10° NNE visible
01 May ? 23:26:21 10° NW 23:27:00 14° NNW 23:27:00 14° NNW visible
02 May ? 22:07:04 10° NNW 22:08:43 15° NNE 22:10:09 11° NE visible
02 May ? 23:40:54 10° NW 23:41:01 11° NW 23:41:01 11° NW visible
